| time (UTC) | temp C | wind direction | speed KPH | gust KPH | rain 1hr cm | rain 24hr cm | rain mn cm | humidity % | barometer mb |
| 20260831181214 | 26 | 67 | 0.0 | 0.0 | 0.00 | 1.50 | 0.08 | 72 | 1042.1 |
| 20260831180215 | 26 | 67 | 0.0 | 0.0 | 0.00 | 1.50 | 0.08 | 70 | 1042.0 |
| 20260831175213 | 27 | 67 | 0.0 | 0.0 | 0.00 | 1.50 | 0.08 | 69 | 1042.2 |
| 20260831175115 | 27 | 67 | 0.0 | 0.0 | 0.00 | 1.50 | 0.08 | 68 | 1042.3 |
| 20260831174117 | 27 | 67 | 0.0 | 0.0 | 0.00 | 1.50 | 0.08 | 63 | 1042.1 |
| 20260831173214 | 27 | 67 | 0.0 | 0.0 | 0.00 | 1.50 | 0.08 | 60 | 1042.1 |
| 20260831173112 | 27 | 67 | 0.0 | 0.0 | 0.00 | 1.50 | 0.08 | 60 | 1042.1 |
| 20260831173014 | 27 | 67 | 0.0 | 0.0 | 0.00 | 1.50 | 0.08 | 60 | 1042.2 |
| 20260831171112 | 27 | 138 | 0.0 | 0.0 | 0.00 | 1.50 | 0.08 | 63 | 1042.1 |
| 20260831170113 | 26 | 157 | 0.0 | 0.0 | 0.00 | 1.50 | 0.08 | 66 | 1042.1 |
| 20260831165113 | 26 | 157 | 0.0 | 0.0 | 0.00 | 1.50 | 0.08 | 64 | 1042.3 |
| 20260831164016 | 26 | 157 | 0.0 | 0.0 | 0.00 | 1.50 | 0.08 | 65 | 1042.4 |
| 20260831163013 | 26 | 202 | 0.0 | 0.0 | 0.00 | 1.50 | 0.08 | 69 | 1042.2 |
| 20260831162013 | 25 | 315 | 0.0 | 0.0 | 0.03 | 1.50 | 0.08 | 74 | 1042.4 |
| 20260831161014 | 25 | 360 | 0.0 | 0.0 | 0.03 | 1.50 | 0.08 | 76 | 1042.5 |
| 20260831160012 | 23 | 270 | 0.0 | 0.0 | 0.03 | 1.50 | 0.08 | 79 | 1042.5 |
| 20260831155015 | 23 | 270 | 0.0 | 0.0 | 0.03 | 1.50 | 0.08 | 83 | 1042.5 |
| 20260831154916 | 23 | 270 | 0.0 | 0.0 | 0.03 | 1.50 | 0.08 | 84 | 1042.5 |
| 20260831153015 | 22 | 270 | 0.0 | 0.0 | 0.03 | 1.50 | 0.08 | 92 | 1042.6 |
| 20260831152030 | 22 | 270 | 0.0 | 0.0 | 0.00 | 1.45 | 0.05 | 91 | 1042.6 |
| 20260831151115 | 22 | 225 | 0.0 | 0.0 | 0.00 | 1.45 | 0.05 | 91 | 1042.7 |
| 20260831145312 | 21 | 225 | 0.0 | 0.0 | 0.00 | 1.45 | 0.05 | 94 | 1042.8 |
| 20260831144312 | 21 | 225 | 0.0 | 0.0 | 0.00 | 1.45 | 0.05 | 95 | 1043.0 |
| 20260831143313 | 21 | 225 | 0.0 | 0.0 | 0.00 | 1.45 | 0.05 | 95 | 1043.0 |
| 20260831142313 | 21 | 225 | 0.0 | 0.0 | 0.00 | 1.45 | 0.05 | 94 | 1042.8 |
| 20260831140315 | 21 | 225 | 0.0 | 0.0 | 0.00 | 1.45 | 0.05 | 94 | 1042.8 |
| 20260831135412 | 21 | 157 | 0.0 | 0.0 | 0.00 | 1.45 | 0.05 | 95 | 1042.7 |
| 20260831135315 | 21 | 157 | 0.0 | 0.0 | 0.00 | 1.45 | 0.05 | 94 | 1042.6 |
| 20260831133316 | 21 | 157 | 0.0 | 0.0 | 0.00 | 1.45 | 0.05 | 95 | 1042.9 |
| 20260831132414 | 21 | 157 | 0.0 | 0.0 | 0.00 | 1.45 | 0.05 | 95 | 1042.8 |
| 20260831131514 | 21 | 157 | 0.0 | 0.0 | 0.00 | 1.45 | 0.05 | 94 | 1042.6 |
| 20260831130516 | 21 | 157 | 0.0 | 0.0 | 0.00 | 1.45 | 0.05 | 96 | 1042.9 |
| 20260831125614 | 21 | 135 | 0.0 | 0.0 | 0.00 | 1.45 | 0.05 | 96 | 1042.8 |
| 20260831124613 | 20 | 135 | 0.0 | 0.0 | 0.00 | 1.45 | 0.05 | 96 | 1042.9 |
| 20260831124517 | 20 | 135 | 0.0 | 0.0 | 0.00 | 1.45 | 0.05 | 96 | 1042.9 |
| 20260831123515 | 20 | 135 | 0.0 | 0.0 | 0.00 | 1.45 | 0.05 | 96 | 1042.8 |
| 20260831122515 | 20 | 135 | 0.0 | 0.0 | 0.00 | 1.45 | 0.05 | 95 | 1042.8 |
| 20260831122416 | 20 | 135 | 0.0 | 0.0 | 0.00 | 1.45 | 0.05 | 96 | 1042.7 |
| 20260831121513 | 20 | 135 | 0.0 | 0.0 | 0.00 | 1.45 | 0.05 | 96 | 1042.5 |
| 20260831120514 | 20 | 135 | 0.0 | 0.0 | 0.00 | 1.45 | 0.05 | 96 | 1042.5 |
| 20260831115514 | 19 | 135 | 0.0 | 0.0 | 0.00 | 1.45 | 0.05 | 96 | 1042.6 |
| 20260831114415 | 19 | 135 | 0.0 | 0.0 | 0.00 | 1.45 | 0.05 | 96 | 1042.4 |
| 20260831113414 | 19 | 135 | 0.0 | 0.0 | 0.00 | 1.45 | 0.05 | 96 | 1042.3 |
| 20260831112425 | 19 | 135 | 0.0 | 0.0 | 0.00 | 1.45 | 0.05 | 96 | 1042.3 |
| 20260831111413 | 19 | 135 | 0.0 | 0.0 | 0.00 | 1.45 | 0.05 | 96 | 1042.2 |
| 20260831110415 | 19 | 135 | 0.0 | 0.0 | 0.00 | 1.45 | 0.05 | 95 | 1042.0 |
| 20260831110314 | 19 | 135 | 0.0 | 0.0 | 0.00 | 1.45 | 0.05 | 96 | 1042.0 |
| 20260831110215 | 19 | 135 | 0.0 | 0.0 | 0.00 | 1.45 | 0.05 | 96 | 1041.9 |
| 20260831105215 | 19 | 135 | 0.0 | 0.0 | 0.00 | 1.45 | 0.05 | 96 | 1042.0 |
| 20260831104313 | 19 | 135 | 0.0 | 0.0 | 0.00 | 1.45 | 0.05 | 95 | 1042.2 |
| 20260831104214 | 19 | 135 | 0.0 | 0.0 | 0.00 | 1.45 | 0.05 | 96 | 1042.2 |
| 20260831103114 | 19 | 135 | 0.0 | 0.0 | 0.00 | 1.45 | 0.05 | 96 | 1041.9 |
| 20260831101214 | 19 | 135 | 0.0 | 0.0 | 0.00 | 1.45 | 0.05 | 96 | 1041.9 |
| 20260831100312 | 19 | 135 | 0.0 | 0.0 | 0.00 | 1.45 | 0.05 | 96 | 1041.7 |
| 20260831100216 | 19 | 135 | 0.0 | 0.0 | 0.00 | 1.45 | 0.05 | 96 | 1041.7 |
| 20260831100115 | 19 | 135 | 0.0 | 0.0 | 0.00 | 1.45 | 0.05 | 96 | 1041.6 |
| 20260831094312 | 19 | 135 | 0.0 | 0.0 | 0.00 | 1.45 | 0.05 | 96 | 1041.4 |
| 20260831093315 | 19 | 135 | 0.0 | 0.0 | 0.00 | 1.45 | 0.05 | 96 | 1041.3 |
| 20260831092315 | 20 | 135 | 0.0 | 0.0 | 0.00 | 1.45 | 0.05 | 96 | 1041.2 |
| 20260831091314 | 20 | 135 | 0.0 | 0.0 | 0.00 | 1.45 | 0.05 | 96 | 1041.2 |
| 20260831090313 | 20 | 135 | 0.0 | 0.0 | 0.00 | 1.45 | 0.05 | 95 | 1041.4 |
| 20260831085316 | 20 | 135 | 0.0 | 0.0 | 0.00 | 1.45 | 0.05 | 95 | 1041.4 |
| 20260831084412 | 20 | 135 | 0.0 | 0.0 | 0.00 | 1.45 | 0.05 | 95 | 1041.2 |
| 20260831083430 | 20 | 135 | 0.0 | 0.0 | 0.00 | 1.45 | 0.05 | 95 | 1041.3 |
| 20260831082515 | 20 | 135 | 0.0 | 0.0 | 0.00 | 1.45 | 0.05 | 95 | 1041.5 |
| 20260831081614 | 20 | 135 | 0.0 | 0.0 | 0.00 | 1.45 | 0.05 | 95 | 1041.4 |
| 20260831080614 | 20 | 135 | 0.0 | 0.0 | 0.00 | 1.45 | 0.05 | 95 | 1041.5 |
| 20260831075616 | 20 | 135 | 0.0 | 0.0 | 0.00 | 1.45 | 0.05 | 94 | 1041.4 |
| 20260831074612 | 20 | 135 | 0.0 | 0.0 | 0.00 | 1.45 | 0.05 | 95 | 1041.3 |
| 20260831072615 | 20 | 135 | 0.0 | 0.0 | 0.00 | 1.45 | 0.05 | 95 | 1041.2 |
| 20260831064613 | 20 | 135 | 0.0 | 0.0 | 0.00 | 1.45 | 0.05 | 95 | 1041.4 |
| 20260831063613 | 21 | 135 | 0.0 | 0.0 | 0.00 | 1.45 | 0.05 | 95 | 1041.4 |
| 20260831062614 | 20 | 135 | 0.0 | 0.0 | 0.00 | 1.45 | 0.05 | 95 | 1041.3 |
| 20260831061613 | 20 | 135 | 0.0 | 0.0 | 0.00 | 1.45 | 0.05 | 94 | 1041.3 |
| 20260831060614 | 21 | 135 | 0.0 | 0.0 | 0.00 | 1.45 | 0.05 | 95 | 1041.2 |
| 20260831060515 | 21 | 135 | 0.0 | 0.0 | 0.00 | 1.45 | 0.05 | 95 | 1041.2 |
| 20260831060414 | 21 | 135 | 0.0 | 0.0 | 0.00 | 1.45 | 0.05 | 95 | 1041.1 |
| 20260831055512 | 21 | 135 | 0.0 | 0.0 | 0.00 | 1.45 | 0.05 | 95 | 1041.1 |
| 20260831054514 | 21 | 135 | 0.0 | 0.0 | 0.00 | 1.45 | 0.05 | 94 | 1041.2 |
| 20260831054413 | 21 | 135 | 0.0 | 0.0 | 0.00 | 1.45 | 0.05 | 95 | 1041.2 |
| 20260831053415 | 21 | 135 | 0.0 | 0.0 | 0.00 | 1.45 | 0.05 | 95 | 1041.1 |
| 20260831052416 | 21 | 135 | 0.0 | 0.0 | 0.00 | 1.45 | 0.05 | 94 | 1041.3 |
| 20260831050514 | 21 | 135 | 0.0 | 0.0 | 0.05 | 1.45 | 0.05 | 94 | 1041.3 |
| 20260831045413 | 21 | 135 | 0.0 | 0.0 | 0.05 | 1.45 | 0.05 | 94 | 1041.2 |
| 20260831044413 | 21 | 135 | 0.0 | 0.0 | 0.05 | 1.45 | 0.05 | 94 | 1041.4 |
| 20260831042416 | 21 | 135 | 0.0 | 0.0 | 0.05 | 1.45 | 0.05 | 94 | 1041.7 |
| 20260831042314 | 21 | 135 | 0.0 | 0.0 | 0.05 | 1.45 | 0.05 | 93 | 1041.7 |
| 20260831041315 | 21 | 135 | 0.0 | 0.0 | 0.03 | 1.45 | 0.03 | 94 | 1041.7 |
| 20260831040414 | 21 | 135 | 0.0 | 0.0 | 0.03 | 1.42 | 0.00 | 93 | 1041.6 |
| 20260831040314 | 21 | 135 | 0.0 | 0.0 | 0.03 | 1.42 | 0.00 | 93 | 1041.6 |
| 20260831035317 | 21 | 135 | 0.0 | 0.0 | 0.03 | 1.42 | 1.42 | 93 | 1041.7 |
| 20260831034318 | 21 | 135 | 0.0 | 0.0 | 0.05 | 1.42 | 1.42 | 93 | 1041.8 |
| 20260831033317 | 21 | 135 | 0.0 | 0.0 | 0.79 | 1.42 | 1.42 | 92 | 1041.6 |
| 20260831030218 | 21 | 135 | 0.0 | 0.0 | 1.40 | 1.40 | 1.40 | 91 | 1041.4 |
| 20260831025216 | 21 | 135 | 0.0 | 0.0 | 1.40 | 1.40 | 1.40 | 89 | 1041.3 |
| 20260831024218 | 22 | 135 | 0.0 | 1.6 | 1.35 | 1.35 | 1.32 | 89 | 1041.8 |
| 20260831024119 | 22 | 129 | 0.0 | 0.0 | 1.32 | 1.32 | 1.22 | 90 | 1042.0 |
| 20260831023117 | 23 | 207 | 1.6 | 8.0 | 0.51 | 0.51 | 0.46 | 90 | 1041.5 |
| 20260831022117 | 23 | 182 | 0.0 | 3.2 | 0.03 | 0.03 | 0.03 | 87 | 1041.4 |
| 20260831022017 | 23 | 202 | 0.0 | 1.6 | 0.03 | 0.03 | 0.03 | 87 | 1041.4 |
| 20260831021015 | 23 | 202 | 0.0 | 0.0 | 0.00 | 0.00 | 0.00 | 86 | 1041.3 |
| 20260831020017 | 23 | 202 | 0.0 | 0.0 | 0.00 | 0.00 | 0.00 | 86 | 1041.1 |
| 20260831015017 | 23 | 202 | 0.0 | 0.0 | 0.00 | 0.00 | 0.00 | 86 | 1041.2 |
| 20260831014016 | 23 | 202 | 0.0 | 0.0 | 0.00 | 0.00 | 0.00 | 86 | 1041.3 |
| 20260831011016 | 23 | 202 | 0.0 | 0.0 | 0.00 | 0.00 | 0.00 | 84 | 1041.1 |
| 20260831010017 | 23 | 202 | 0.0 | 0.0 | 0.00 | 0.00 | 0.00 | 85 | 1041.2 |
| 20260831005916 | 23 | 202 | 0.0 | 0.0 | 0.00 | 0.00 | 0.00 | 85 | 1041.1 |
| 20260831004917 | 23 | 202 | 0.0 | 0.0 | 0.00 | 0.00 | 0.00 | 85 | 1041.1 |
| 20260831004016 | 23 | 202 | 0.0 | 0.0 | 0.00 | 0.00 | 0.00 | 85 | 1041.1 |
| 20260831002018 | 23 | 202 | 0.0 | 0.0 | 0.00 | 0.00 | 0.00 | 83 | 1040.8 |
| 20260831000018 | 23 | 202 | 0.0 | 0.0 | 0.00 | 0.00 | 0.00 | 81 | 1040.5 |
| 20260830235015 | 23 | 202 | 0.0 | 0.0 | 0.00 | 0.00 | 0.00 | 79 | 1040.6 |
| 20260830234916 | 23 | 202 | 0.0 | 0.0 | 0.00 | 0.00 | 0.00 | 79 | 1040.7 |
| 20260830233917 | 24 | 202 | 0.0 | 0.0 | 0.00 | 0.00 | 0.00 | 79 | 1040.7 |
| 20260830232915 | 24 | 202 | 0.0 | 0.0 | 0.00 | 0.00 | 0.00 | 79 | 1040.7 |
| 20260830231917 | 25 | 202 | 0.0 | 0.0 | 0.00 | 0.00 | 0.00 | 78 | 1040.8 |
| 20260830230918 | 25 | 202 | 0.0 | 0.0 | 0.00 | 0.00 | 0.00 | 78 | 1040.9 |
| 20260830230817 | 25 | 202 | 0.0 | 0.0 | 0.00 | 0.00 | 0.00 | 78 | 1040.9 |
| 20260830225818 | 25 | 202 | 0.0 | 0.0 | 0.00 | 0.00 | 0.00 | 75 | 1040.9 |
| 20260830224818 | 25 | 202 | 0.0 | 0.0 | 0.00 | 0.00 | 0.00 | 75 | 1040.6 |
| 20260830223817 | 26 | 202 | 0.0 | 0.0 | 0.00 | 0.00 | 0.00 | 76 | 1040.7 |
| 20260830222915 | 26 | 202 | 0.0 | 0.0 | 0.00 | 0.00 | 0.00 | 76 | 1040.5 |
| 20260830221917 | 26 | 202 | 0.0 | 0.0 | 0.00 | 0.00 | 0.00 | 74 | 1040.6 |
| 20260830220823 | 26 | 202 | 0.0 | 0.0 | 0.00 | 0.00 | 0.00 | 73 | 1040.7 |
| 20260830215817 | 26 | 202 | 0.0 | 0.0 | 0.00 | 0.00 | 0.00 | 74 | 1040.5 |
| 20260830214817 | 26 | 202 | 0.0 | 0.0 | 0.00 | 0.00 | 0.00 | 74 | 1040.4 |
| 20260830214719 | 26 | 202 | 0.0 | 0.0 | 0.00 | 0.00 | 0.00 | 73 | 1040.4 |
| 20260830213816 | 26 | 202 | 0.0 | 0.0 | 0.00 | 0.00 | 0.00 | 72 | 1040.4 |
| 20260830212916 | 26 | 180 | 0.0 | 0.0 | 0.00 | 0.00 | 0.00 | 72 | 1040.4 |
| 20260830210917 | 27 | 180 | 0.0 | 0.0 | 0.00 | 0.00 | 0.00 | 71 | 1040.4 |
| 20260830205919 | 27 | 270 | 0.0 | 0.0 | 0.00 | 0.00 | 0.00 | 71 | 1040.5 |
| 20260830204918 | 27 | 360 | 0.0 | 0.0 | 0.00 | 0.00 | 0.00 | 70 | 1040.6 |
| 20260830203916 | 27 | 360 | 0.0 | 0.0 | 0.00 | 0.00 | 0.00 | 69 | 1040.6 |
| 20260830202916 | 27 | 225 | 0.0 | 0.0 | 0.00 | 0.00 | 0.00 | 66 | 1040.5 |
| 20260830201916 | 27 | 225 | 0.0 | 0.0 | 0.00 | 0.00 | 0.00 | 67 | 1040.5 |
| 20260830201819 | 27 | 225 | 0.0 | 0.0 | 0.00 | 0.00 | 0.00 | 68 | 1040.5 |
| 20260830200916 | 26 | 360 | 0.0 | 0.0 | 0.00 | 0.00 | 0.00 | 69 | 1040.7 |
| 20260830200818 | 26 | 360 | 0.0 | 0.0 | 0.00 | 0.00 | 0.00 | 69 | 1040.7 |
| 20260830195817 | 26 | 217 | 0.0 | 0.0 | 0.00 | 0.00 | 0.00 | 69 | 1041.0 |
| 20260830194817 | 27 | 360 | 0.0 | 0.0 | 0.00 | 0.00 | 0.00 | 67 | 1041.1 |
| 20260830193818 | 28 | 360 | 0.0 | 3.2 | 0.00 | 0.00 | 0.00 | 63 | 1040.9 |
| 20260830192916 | 28 | 360 | 0.0 | 1.6 | 0.00 | 0.00 | 0.00 | 62 | 1041.2 |
| 20260830191016 | 28 | 45 | 0.0 | 0.0 | 0.00 | 0.00 | 0.00 | 63 | 1041.3 |
| 20260830185116 | 28 | 360 | 0.0 | 0.0 | 0.00 | 0.00 | 0.00 | 65 | 1041.6 |
| 20260830183116 | 27 | 360 | 0.0 | 0.0 | 0.00 | 0.00 | 0.00 | 67 | 1041.8 |
| 20260830182116 | 27 | 9 | 0.0 | 3.2 | 0.00 | 0.00 | 0.00 | 69 | 1042.0 |